Regional Weather Roundup
Issued by NWS New Orleans/Baton Rouge, LA

Home | Current Version | Previous Version | Graphics & Text | Print | Product List | Glossary On
Versions: 1 2 3 4 5 6 7 8 9 10 11 12 13 14 15 16 17 18 19 20 21 22 23 24 25 26 27 28 29 30 31 32 33 34 35 36 37 38 39 40 41 42 43 44 45 46 47 48 49 50
744
ASUS44 KLIX 250605
RWRLIX
NEW ORLEANS REGIONAL WEATHER ROUNDUP
NATIONAL WEATHER SERVICE NEW ORLEANS LA
1200 AM CST SUN JAN 25 2015

NOTE: "FAIR" INDICATES FEW OR NO CLOUDS BELOW 12,000 FEET WITH NO
      SIGNIFICANT WEATHER AND/OR OBSTRUCTIONS TO VISIBILITY.
      SKY/WX - SKY CONDITION AND SIGNIFICANT WEATHER.
      TMP - AIR TEMPERATURE.     DP    - DEWPOINT TEMPERATURE.
      RH  - RELATIVE HUMIDITY.   PRES  - PRESSURE.
      HI  - HEAT INDEX.          WCI   - WIND CHILL INDEX.

*  THESE STATIONS ARE NOT NWS OR FAA STATIONS AND ARE NOT UNDER
   NWS QUALITY CONTROL.

LAZ038-040-048-061>063-065>067-069-250700-
SOUTHEAST LOUISIANA

CITY           SKY/WX    TMP DP  RH WIND       PRES   REMARKS
N.O. AUDUBON   NOT AVBL
N.O. INTL ARPT PTCLDY    44  38  79 SW6       30.09F
6HR MIN TEMP:  44; 6HR MAX TEMP:  53;

N.O. LAKEFRONT CLEAR     50  41  71 SW13      30.09F
6HR MIN TEMP:  50; 6HR MAX TEMP:  54;

N.O. DOWNTOWN*   N/A     46  37  71 SW5       30.09F
6HR MIN TEMP:  46; 6HR MAX TEMP:  54;

SLIDELL        PTCLDY    47  40  76 CALM      30.07F
6HR MIN TEMP:  37; 6HR MAX TEMP:  47;

BATON ROUGE    CLEAR     45  38  76 SW7       30.07F
6HR MIN TEMP:  45; 6HR MAX TEMP:  51;

BOOTHVILLE     PTCLDY    48  41  76 W8        30.10F
6HR MIN TEMP:  47; 6HR MAX TEMP:  50;

BELLE CHASSE   CLEAR     47  40  76 W6        30.09F
6HR MIN TEMP:  41; 6HR MAX TEMP:  52;

BOGALUSA*        N/A     37  33  87 CALM      30.09S
6HR MIN TEMP:  35; 6HR MAX TEMP:  46;

GALLIANO*      CLEAR     46  43  88 MISG      30.10F
6HR MIN TEMP:  46; 6HR MAX TEMP:  52;

NEW ROADS*       N/A     44  39  83 SW5       30.08S
6HR MIN TEMP:  44; 6HR MAX TEMP:  51;

GONZALES*        N/A     41  41  99 CALM      30.08F
6HR MIN TEMP:  41; 6HR MAX TEMP:  51;

HAMMOND*       CLEAR     45  37  76 CALM      30.09F
HOUMA*         PTCLDY    44  42  93 CALM      30.10S
6HR MIN TEMP:  44; 6HR MAX TEMP:  49;

PORT FOURCHON* CLEAR     52  45  76 W8        30.13F

$$

MSZ070-080>082-250700-
SOUTHERN MISSISSIPPI

CITY           SKY/WX    TMP DP  RH WIND       PRES   REMARKS
MCCOMB         CLEAR     37  33  85 S3        30.05S
6HR MIN TEMP:  37; 6HR MAX TEMP:  49;

GULFPORT       CLEAR     42  38  85 W3        30.07F
6HR MIN TEMP:  39; 6HR MAX TEMP:  48;

BILOXI         CLEAR     49  44  83 W8        30.07F
6HR MIN TEMP:  44; 6HR MAX TEMP:  49;

PASCAGOULA     PTCLDY    37  35  92 W3        30.07F
6HR MIN TEMP:  36; 6HR MAX TEMP:  46;


$$

COASTAL OBSERVATIONS
LAKE AND NEARSHORE STATIONS

STATION/POSITION TIME  TEMP    WIND        PRES    WAVE
                       AIR SEA DIR/SP/G            HT/PER
                 (UTC) (F)     (DEG/KT/KT) (MB)    (FT/S)
PASCAGOULA       0600   53     250/ 10/ 16 1017.7
WAVELAND YACHT   0600   46     270/  6/  9 1017.5
GRAND ISLE       0600   52 54  290/ 12/ 14 1019.2
SOUTHWEST PASS   0600   54 46  310/  8/ 16 1019.3
NEW CANAL        0600   47 51  230/  5/  8 1019.0
SHELL BEACH      0600   46 53  250/  8/ 10 1018.8

OFFSHORE STATIONS

STATION/POSITION TIME  TEMP    WIND        PRES    WAVE
                       AIR SEA DIR/SP/G            HT/PER
                 (UTC) (F)     (DEG/KT/KT) (MB)    (FT/S)
64 S DAUPHIN ISL 0501   57 70  280/ 16/ 19 1018.7    4/ 7

$$




USA.gov is the U.S. government's official web portal to all federal, state and local government web resources and services.